P/2019 G1 ( PanSTARRS )

Japanese version
Home page
Updated on April 13, 2019

---------------------------------------------------------------------

* Profile

Discovery Date April 3, 2019
Magnitude 19.9 mag
Discoverer Pan-STARRS 1 telescope (Haleakala)

* Orbital Elements

Epoch 2019 June 6.0 TT = JDT 2458640.5
T 2019 June 6.92064 TT                                  MPCW
q   3.0496479            (2000.0)            P               Q
n   0.10218484     Peri.   90.06881     -0.72177761     +0.68418151
a   4.5311845      Node   133.10317     -0.67823544     -0.66906204
e   0.3269645      Incl.    8.23353     -0.13796293     -0.29026136
P   9.65
From 123 observations 2009 Feb. 26-2019 Apr. 9, mean residual 0".5.

* Magnitudes Graph

        m1 = 7.0 + 5 log d + 20.0 log r

---------------------------------------------------------------------

The orbital elements are published on M.P.E.C. 2019-G123.
The magnitudes graphs are made with Comet for Windows.

---------------------------------------------------------------------

Copyright(C) Seiichi Yoshida (comet@aerith.net). All rights reserved.